Location: Baumgarten
(49.0970°N, 12.7493°E)
Time: 18:37:36
(UTC+00:00)

NOSS 0 Rocket - Pass Details

Date: 05 July 2020
Orbit: 934 x 955 km, 70.0° (Epoch: 11 August)

Event Time Altitude Azimuth Distance (km) Brightness Sun altitude
Exits shadow 22:07:31 - 215° (SW) 2,687 5.9 -16.7°
Reaches altitude 10° 22:07:38 10° 215° (SW) 2,640 5.9 -16.7°
Maximum altitude 22:13:46 76° 302° (WNW) 969 4.1 -17.0°
Drops below altitude 10° 22:19:58 10° 28° (NNE) 2,667 7.0 -17.2°
Sets 22:22:31 0° 30° (NNE) 3,619 7.7 -17.3°
